.
WxDataArchive / Data Records for 2016-03-27
2016-03-26 March 2016 2016-03-28

Data Records for Sunday, 27 March 2016

Time	Temp	Chill	HIndex	Humid	Dewpt	 Wind 	HiWind	WindDir	Rain 	Barom
-----	----	-----	------	-----	-----	------	------	-------	-----	-----
00:00	38.8	38.8	38.8	87	35.3	2	5	90	0.00	30.124 
00:05	38.6	38.6	38.6	87	35.1	2	5	90	0.00	30.124 
00:10	38.5	38.5	38.5	87	35.0	3	6	90	0.00	30.124 
00:15	38.3	38.3	38.3	87	34.8	3	6	90	0.00	30.127 
00:20	38.2	38.2	38.2	87	34.7	2	5	90	0.00	30.127 
00:25	38.0	38.0	38.0	87	34.5	2	5	90	0.00	30.127 
00:30	37.9	37.9	37.9	87	34.4	2	4	90	0.00	30.129 
00:35	37.8	37.8	37.8	87	34.3	2	5	90	0.00	30.129 
00:40	37.6	37.6	37.6	88	34.4	2	5	90	0.00	30.129 
00:45	37.5	37.5	37.5	88	34.3	2	5	90	0.00	30.128 
00:50	37.3	37.3	37.3	88	34.1	2	5	90	0.00	30.128 
00:55	37.2	37.2	37.2	88	34.0	2	5	90	0.00	30.128 
01:00	37.0	37.0	37.0	88	33.8	2	4	112	0.00	30.133 
01:05	37.0	37.0	37.0	88	33.8	2	4	90	0.00	30.133 
01:10	36.9	36.9	36.9	88	33.7	1	4	90	0.00	30.133 
01:15	36.8	36.8	36.8	88	33.6	1	3	90	0.00	30.131 
01:20	36.6	36.6	36.6	88	33.4	1	3	90	0.00	30.131 
01:25	36.6	36.6	36.6	88	33.4	1	4	90	0.00	30.131 
01:30	36.5	36.5	36.5	88	33.3	1	3	90	0.00	30.130 
01:35	36.5	36.5	36.5	88	33.3	1	4	90	0.00	30.130 
01:40	36.3	36.3	36.3	88	33.1	1	3	90	0.00	30.130 
01:45	36.3	36.3	36.3	88	33.1	1	5	90	0.00	30.137 
01:50	36.2	36.2	36.2	89	33.3	1	3	90	0.00	30.137 
01:55	36.0	36.0	36.0	89	33.1	1	3	90	0.00	30.137 
02:00	36.0	36.0	36.0	89	33.1	1	3	90	0.00	30.134 
02:05	36.0	36.0	36.0	89	33.1	2	4	90	0.00	30.134 
02:10	36.0	36.0	36.0	89	33.1	1	3	90	0.00	30.134 
02:15	36.0	36.0	36.0	89	33.1	1	3	90	0.00	30.126 
02:20	36.0	36.0	36.0	89	33.1	1	3	90	0.00	30.126 
02:25	35.9	35.9	35.9	89	33.0	0	3	90	0.00	30.126 
02:30	35.9	35.9	35.9	89	33.0	1	5	90	0.00	30.128 
02:35	35.9	35.9	35.9	89	33.0	1	4	90	0.00	30.128 
02:40	35.8	35.8	35.8	89	32.9	1	3	90	0.00	30.128 
02:45	35.8	35.8	35.8	89	32.9	1	3	90	0.00	30.120 
02:50	35.8	35.8	35.8	89	32.9	2	4	90	0.00	30.120 
02:55	35.6	35.6	35.6	89	32.7	1	3	90	0.00	30.120 
03:00	35.6	35.6	35.6	89	32.7	0	3	90	0.00	30.118 
03:05	35.6	35.6	35.6	89	32.7	1	3	90	0.00	30.118 
03:10	35.6	35.6	35.6	89	32.7	2	3	90	0.00	30.118 
03:15	35.6	35.6	35.6	89	32.7	1	3	90	0.00	30.119 
03:20	35.6	35.6	35.6	89	32.7	1	2	90	0.00	30.119 
03:25	35.6	35.6	35.6	89	32.7	1	3	90	0.00	30.119 
03:30	35.5	35.5	35.5	89	32.6	0	2	90	0.00	30.122 
03:35	35.5	35.5	35.5	89	32.6	1	5	90	0.00	30.122 
03:40	35.5	35.5	35.5	89	32.6	1	3	90	0.00	30.122 
03:45	35.3	35.3	35.3	89	32.4	1	3	90	0.00	30.114 
03:50	35.3	35.3	35.3	89	32.4	1	3	90	0.00	30.114 
03:55	35.3	35.3	35.3	89	32.4	1	4	90	0.00	30.114 
04:00	35.2	35.2	35.2	89	32.3	1	2	90	0.00	30.105 
04:05	35.2	35.2	35.2	89	32.3	1	3	90	0.00	30.105 
04:10	35.2	35.2	35.2	89	32.3	1	3	90	0.00	30.105 
04:15	35.2	35.2	35.2	89	32.3	0	2	90	0.00	30.097 
04:20	35.0	35.0	35.0	89	32.1	0	2	90	0.00	30.097 
04:25	35.0	35.0	35.0	89	32.1	1	3	90	0.00	30.097 
04:30	34.9	34.9	34.9	89	32.0	1	3	90	0.00	30.095 
04:35	34.7	34.7	34.7	89	31.8	1	3	90	0.00	30.095 
04:40	34.6	34.6	34.6	89	31.7	1	3	90	0.00	30.095 
04:45	34.4	34.4	34.4	89	31.5	0	2	90	0.00	30.087 
04:50	34.3	34.3	34.3	90	31.7	0	2	90	0.00	30.087 
04:55	34.3	34.3	34.3	90	31.7	0	2	90	0.00	30.087 
05:00	34.1	34.1	34.1	90	31.5	1	2	90	0.00	30.087 
05:05	34.1	34.1	34.1	90	31.5	0	2	90	0.00	30.087 
05:10	34.0	34.0	34.0	90	31.4	0	1	90	0.00	30.087 
05:15	33.8	33.8	33.8	90	31.2	0	2	90	0.00	30.083 
05:20	33.8	33.8	33.8	90	31.2	0	1	90	0.00	30.083 
05:25	33.7	33.7	33.7	90	31.1	0	2	90	0.00	30.083 
05:30	33.5	33.5	33.5	90	30.9	0	2	90	0.00	30.082 
05:35	33.5	33.5	33.5	91	31.2	0	1	90	0.00	30.082 
05:40	33.4	33.4	33.4	91	31.1	0	2	90	0.00	30.082 
05:45	33.4	33.4	33.4	91	31.1	0	2	90	0.00	30.084 
05:50	33.2	33.2	33.2	91	30.9	0	2	90	0.00	30.084 
05:55	33.1	33.1	33.1	91	30.8	0	2	90	0.00	30.084 
06:00	33.1	33.1	33.1	91	30.8	0	1	90	0.00	30.083 
06:05	32.9	32.9	32.9	91	30.6	1	2	90	0.00	30.083 
06:10	32.9	32.9	32.9	91	30.6	1	3	90	0.00	30.083 
06:15	32.9	32.9	32.9	91	30.6	0	2	90	0.00	30.076 
06:20	32.8	32.8	32.8	91	30.5	0	3	90	0.00	30.076 
06:25	32.8	32.8	32.8	91	30.5	0	1	90	0.00	30.076 
06:30	32.7	32.7	32.7	91	30.4	0	2	90	0.00	30.072 
06:35	32.7	32.7	32.7	91	30.4	1	2	90	0.00	30.072 
06:40	32.5	32.5	32.5	92	30.4	1	3	90	0.00	30.072 
06:45	32.5	32.5	32.5	92	30.4	1	4	90	0.00	30.070 
06:50	32.5	32.5	32.5	92	30.4	0	3	90	0.00	30.070 
06:55	32.5	32.5	32.5	92	30.4	0	2	90	0.00	30.070 
07:00	32.4	32.4	32.4	92	30.3	0	2	90	0.00	30.068 
07:05	32.4	32.4	32.4	92	30.3	0	2	90	0.00	30.068 
07:10	32.4	32.4	32.4	92	30.3	1	3	90	0.00	30.068 
07:15	32.4	32.4	32.4	92	30.3	0	2	90	0.00	30.067 
07:20	32.2	32.2	32.2	92	30.1	0	1	90	0.00	30.067 
07:25	32.2	32.2	32.2	92	30.1	0	1	90	0.00	30.067 
07:30	32.2	32.2	32.2	92	30.1	0	2	90	0.00	30.066 
07:35	32.2	32.2	32.2	92	30.1	0	2	90	0.00	30.066 
07:40	32.2	32.2	32.2	92	30.1	1	2	90	0.00	30.066 
07:45	32.4	32.4	32.4	92	30.3	0	2	90	0.00	30.061 
07:50	32.4	32.4	32.4	92	30.3	0	1	90	0.00	30.061 
07:55	32.4	32.4	32.4	92	30.3	0	3	90	0.00	30.061 
08:00	32.5	32.5	32.5	93	30.7	0	1	90	0.00	30.056 
08:05	32.7	32.7	32.7	93	30.9	1	2	90	0.00	30.056 
08:10	32.9	32.9	32.9	93	31.1	0	2	90	0.00	30.056 
08:15	33.1	33.1	33.1	93	31.3	0	3	90	0.00	30.058 
08:20	33.4	33.4	33.4	93	31.6	0	2	90	0.00	30.058 
08:25	33.5	33.5	33.5	93	31.7	0	3	90	0.00	30.058 
08:30	33.8	33.8	33.8	92	31.7	1	3	90	0.00	30.067 
08:35	34.0	34.0	34.0	92	31.9	0	3	90	0.00	30.067 
08:40	34.4	34.4	34.4	92	32.3	0	2	90	0.00	30.067 
08:45	34.9	34.9	34.9	92	32.8	1	2	90	0.00	30.058 
08:50	35.3	35.3	35.3	92	33.2	1	4	90	0.00	30.058 
08:55	35.6	35.6	35.6	91	33.2	1	3	90	0.00	30.058 
09:00	35.8	35.8	35.8	91	33.4	1	3	90	0.00	30.054 
09:05	36.0	36.0	36.0	91	33.6	0	3	90	0.00	30.054 
09:10	36.3	36.3	36.3	90	33.7	1	3	90	0.00	30.054 
09:15	36.6	36.6	36.6	89	33.7	1	3	90	0.00	30.054 
09:20	37.2	37.2	37.2	89	34.3	1	4	90	0.00	30.054 
09:25	37.3	37.3	37.3	88	34.1	2	5	90	0.00	30.054 
09:30	37.6	37.6	37.6	88	34.4	1	4	90	0.00	30.043 
09:35	37.9	37.9	37.9	84	33.5	2	4	90	0.00	30.043 
09:40	38.5	38.5	38.5	87	35.0	2	4	90	0.00	30.043 
09:45	39.1	39.1	39.1	87	35.6	2	6	90	0.00	30.038 
09:50	39.8	39.8	39.8	85	35.7	2	5	90	0.00	30.038 
09:55	40.6	40.6	40.6	85	36.4	2	5	90	0.00	30.038 
10:00	41.2	41.2	41.2	82	36.1	3	5	90	0.00	30.022 
10:05	41.6	41.6	41.6	81	36.2	3	6	90	0.00	30.022 
10:10	42.3	42.3	42.3	81	36.9	2	5	90	0.00	30.022 
10:15	42.9	42.9	42.9	79	36.8	3	5	90	0.00	30.018 
10:20	43.6	43.6	43.6	77	36.9	2	5	90	0.00	30.018 
10:25	44.3	44.3	44.3	76	37.2	2	4	90	0.00	30.018 
10:30	45.2	45.2	45.2	75	37.8	2	5	90	0.00	30.000 
10:35	46.0	46.0	46.0	74	38.2	1	5	112	0.00	30.000 
10:40	46.8	46.8	46.8	72	38.3	2	5	112	0.00	30.000 
10:45	47.7	47.7	47.7	72	39.1	2	6	112	0.00	29.999 
10:50	48.6	48.6	48.6	69	38.9	1	4	90	0.00	29.999 
10:55	49.1	49.1	49.1	70	39.7	2	5	90	0.00	29.999 
11:00	49.9	49.9	49.9	68	39.8	1	4	90	0.00	29.997 
11:05	51.0	51.0	51.0	66	40.0	1	3	90	0.00	29.997 
11:10	51.9	51.9	51.9	65	40.5	1	3	90	0.00	29.997 
11:15	52.8	52.8	52.8	63	40.6	1	4	90	0.00	29.997 
11:20	53.5	53.5	53.5	62	40.8	1	3	90	0.00	29.997 
11:25	54.4	54.4	54.4	64	42.5	0	2	90	0.00	29.997 
11:30	55.1	55.1	55.1	59	41.0	1	3	90	0.00	30.001 
11:35	55.7	55.7	55.7	59	41.6	1	2	90	0.00	30.001 
11:40	56.5	56.5	56.5	59	42.3	0	2	90	0.00	30.001 
11:45	57.0	57.0	57.0	57	41.9	1	3	90	0.00	29.996 
11:50	57.5	57.5	57.5	55	41.5	1	3	90	0.00	29.996 
11:55	58.1	58.1	58.1	55	42.0	0	1	90	0.00	29.996 
12:00	58.7	58.7	58.7	55	42.6	1	4	90	0.00	29.991 
12:05	59.2	59.2	59.2	54	42.6	0	3	90	0.00	29.991 
12:10	59.8	59.8	59.8	55	43.6	0	2	90	0.00	29.991 
12:15	60.2	60.2	60.2	53	43.0	0	1	90	0.00	29.980 
12:20	61.0	61.0	61.0	52	43.2	0	2	90	0.00	29.980 
12:25	61.3	61.3	61.3	50	42.5	0	2	90	0.00	29.980 
12:30	61.8	61.8	61.8	50	43.0	0	3	90	0.00	29.963 
12:35	62.7	62.7	62.7	51	44.3	0	1	90	0.00	29.963 
12:40	63.4	63.4	63.4	49	43.9	0	1	90	0.00	29.963 
12:45	64.0	64.0	64.0	47	43.4	1	4	90	0.00	29.949 
12:50	64.3	64.3	64.3	47	43.6	0	2	90	0.00	29.949 
12:55	64.8	64.8	64.8	48	44.6	0	1	90	0.00	29.949 
13:00	65.5	65.5	65.5	48	45.3	0	1	90	0.00	29.934 
13:05	65.8	65.8	65.8	45	43.9	2	5	90	0.00	29.934 
13:10	66.0	66.0	66.0	46	44.6	1	3	90	0.00	29.934 
13:15	66.3	66.3	66.3	44	43.7	1	3	90	0.00	29.921 
13:20	66.6	66.6	66.6	44	44.0	1	4	112	0.00	29.921 
13:25	66.6	66.6	66.6	44	44.0	2	6	112	0.00	29.921 
13:30	66.8	66.8	66.8	47	45.9	0	2	90	0.00	29.911 
13:35	67.4	67.4	67.4	43	44.1	2	6	90	0.00	29.911 
13:40	67.9	67.9	67.9	49	48.0	0	2	112	0.00	29.911 
13:45	68.8	68.8	68.8	45	46.6	1	3	112	0.00	29.907 
13:50	69.3	69.3	69.3	43	45.8	1	4	112	0.00	29.907 
13:55	69.6	69.6	69.6	43	46.1	2	6	90	0.00	29.907 
14:00	69.9	69.9	69.9	44	47.0	0	2	90	0.00	29.891 
14:05	70.4	70.4	70.4	44	47.4	0	3	90	0.00	29.891 
14:10	71.1	71.1	71.1	41	46.2	1	7	90	0.00	29.891 
14:15	71.3	71.3	71.3	42	47.0	2	5	90	0.00	29.876 
14:20	71.3	71.3	71.3	41	46.4	1	6	68	0.00	29.876 
14:25	71.5	71.5	71.5	42	47.2	2	10	248	0.00	29.876 
14:30	71.5	71.5	71.5	40	45.9	2	7	90	0.00	29.868 
14:35	71.8	71.8	71.8	41	46.8	1	5	90	0.00	29.868 
14:40	72.1	72.1	72.1	43	48.4	2	9	112	0.00	29.868 
14:45	72.3	72.3	72.3	39	45.9	3	6	90	0.00	29.847 
14:50	72.5	72.5	72.5	42	48.1	1	4	90	0.00	29.847 
14:55	72.7	72.7	72.7	41	47.6	3	9	90	0.00	29.847 
15:00	73.0	73.0	73.0	43	49.2	1	5	112	0.00	29.840 
15:05	73.2	73.2	73.2	42	48.7	2	6	248	0.00	29.840 
15:10	73.3	73.3	73.3	41	48.2	2	6	112	0.00	29.840 
15:15	73.3	73.3	73.3	40	47.5	2	11	270	0.00	29.826 
15:20	73.5	73.5	73.5	41	48.3	2	7	270	0.00	29.826 
15:25	73.5	73.5	73.5	41	48.3	2	5	68	0.00	29.826 
15:30	73.5	73.5	73.5	41	48.3	1	7	248	0.00	29.811 
15:35	73.5	73.5	73.5	42	49.0	1	4	292	0.00	29.811 
15:40	73.3	73.3	73.3	41	48.2	2	6	90	0.00	29.811 
15:45	73.7	73.7	73.7	41	48.5	1	3	135	0.00	29.805 
15:50	73.9	73.9	73.9	42	49.3	1	3	270	0.00	29.805 
15:55	74.0	74.0	74.0	43	50.1	2	7	90	0.00	29.805 
16:00	73.9	73.9	73.9	43	50.0	2	5	90	0.00	29.793 
16:05	73.7	73.7	73.7	41	48.5	2	9	90	0.00	29.793 
16:10	73.0	73.0	73.0	42	48.5	1	3	45	0.00	29.793 
16:15	72.3	72.3	72.3	41	47.3	2	5	248	0.00	29.784 
16:20	72.1	72.1	72.1	43	48.4	1	6	45	0.00	29.784 
16:25	72.1	72.1	72.1	44	49.0	1	3	45	0.00	29.784 
16:30	72.1	72.1	72.1	45	49.6	1	5	90	0.00	29.773 
16:35	72.1	72.1	72.1	46	50.2	2	7	90	0.00	29.773 
16:40	72.1	72.1	72.1	46	50.2	2	6	112	0.00	29.773 
16:45	72.0	72.0	72.0	46	50.1	2	9	90	0.00	29.764 
16:50	72.1	72.1	72.1	47	50.7	1	3	90	0.00	29.764 
16:55	72.7	72.7	72.7	48	51.9	1	5	68	0.00	29.764 
17:00	73.0	73.0	73.0	47	51.6	1	3	68	0.00	29.757 
17:05	73.0	73.0	73.0	46	51.0	1	6	45	0.00	29.757 
17:10	72.8	72.8	72.8	46	50.8	1	6	270	0.00	29.757 
17:15	72.8	72.8	72.8	47	51.4	1	7	112	0.00	29.751 
17:20	72.7	72.7	72.7	47	51.3	1	5	248	0.00	29.751 
17:25	72.7	72.7	72.7	47	51.3	1	5	90	0.00	29.751 
17:30	72.5	72.5	72.5	47	51.1	1	5	248	0.00	29.753 
17:35	72.3	72.3	72.3	46	50.3	1	3	248	0.00	29.753 
17:40	72.1	72.1	72.1	48	51.3	0	2	292	0.00	29.753 
17:45	72.0	72.0	72.0	47	50.7	1	5	270	0.00	29.734 
17:50	71.8	71.8	71.8	48	51.0	0	2	68	0.00	29.734 
17:55	71.6	71.6	71.6	49	51.4	1	3	45	0.00	29.734 
18:00	71.3	71.3	71.3	48	50.6	1	4	248	0.00	29.731 
18:05	71.1	71.1	71.1	49	51.0	1	3	248	0.00	29.731 
18:10	70.9	70.9	70.9	49	50.8	1	3	202	0.00	29.731 
18:15	70.8	70.8	70.8	50	51.2	0	3	180	0.00	29.715 
18:20	70.4	70.4	70.4	50	50.9	0	3	158	0.00	29.715 
18:25	70.3	70.3	70.3	50	50.8	1	4	135	0.00	29.715 
18:30	70.3	70.3	70.3	50	50.8	1	3	90	0.00	29.703 
18:35	70.3	70.3	70.3	50	50.8	1	3	90	0.00	29.703 
18:40	70.1	70.1	70.1	53	52.2	0	2	202	0.00	29.703 
18:45	69.8	69.8	69.8	54	52.4	0	1	202	0.00	29.689 
18:50	69.4	69.4	69.4	56	53.0	0	1	202	0.00	29.689 
18:55	68.9	68.9	68.9	58	53.5	1	5	202	0.00	29.689 
19:00	67.3	67.3	67.3	64	54.7	2	10	248	0.00	29.716 
19:05	65.5	65.5	65.5	71	55.8	2	5	248	0.01	29.716 
19:10	64.0	64.0	64.0	73	55.2	1	3	270	0.00	29.716 
19:15	63.2	63.2	63.2	77	55.9	0	2	270	0.00	29.737 
19:20	62.7	62.7	62.7	80	56.4	0	1	270	0.01	29.737 
19:25	62.3	62.3	62.3	82	56.7	0	1	270	0.03	29.737 
19:30	61.8	61.8	61.8	83	56.6	0	1	270	0.01	29.717 
19:35	61.3	61.3	61.3	84	56.4	0	0	---	0.00	29.717 
19:40	61.2	61.2	61.2	85	56.6	0	0	---	0.00	29.717 
19:45	60.9	60.9	60.9	86	56.7	0	0	---	0.00	29.701 
19:50	60.7	60.7	60.7	86	56.5	0	0	---	0.00	29.701 
19:55	60.4	60.4	60.4	87	56.5	0	0	---	0.00	29.701 
20:00	60.1	60.1	60.1	88	56.5	0	0	---	0.00	29.680 
20:05	59.9	59.9	59.9	88	56.3	0	0	---	0.00	29.680 
20:10	59.8	59.8	59.8	88	56.2	0	1	270	0.00	29.680 
20:15	59.6	59.6	59.6	88	56.0	0	0	---	0.00	29.660 
20:20	59.3	59.3	59.3	89	56.1	0	0	---	0.00	29.660 
20:25	59.2	59.2	59.2	89	56.0	0	0	---	0.00	29.660 
20:30	59.0	59.0	59.0	89	55.8	0	0	---	0.00	29.660 
20:35	58.9	58.9	58.9	89	55.7	0	0	---	0.00	29.660 
20:40	59.0	59.0	59.0	90	56.1	0	1	270	0.00	29.660 
20:45	59.0	59.0	59.0	90	56.1	0	0	---	0.00	29.671 
20:50	58.9	58.9	58.9	91	56.3	0	0	---	0.00	29.671 
20:55	58.9	58.9	58.9	91	56.3	0	2	270	0.01	29.671 
21:00	59.0	59.0	59.0	92	56.7	1	3	270	0.00	29.715 
21:05	59.0	59.0	59.0	91	56.4	0	2	292	0.02	29.715 
21:10	58.9	58.9	58.9	91	56.3	1	3	270	0.02	29.715 
21:15	58.7	58.7	58.7	91	56.1	1	4	270	0.00	29.672 
21:20	58.3	58.3	58.3	90	55.4	1	5	292	0.00	29.672 
21:25	58.3	58.3	58.3	88	54.8	0	3	292	0.01	29.672 
21:30	58.3	58.3	58.3	88	54.8	0	1	292	0.00	29.656 
21:35	58.0	58.0	58.0	87	54.1	0	3	292	0.00	29.656 
21:40	58.0	58.0	58.0	87	54.1	0	1	292	0.00	29.656 
21:45	57.8	57.8	57.8	87	54.0	0	2	292	0.00	29.655 
21:50	57.8	57.8	57.8	87	54.0	1	3	292	0.00	29.655 
21:55	57.8	57.8	57.8	86	53.6	1	4	292	0.00	29.655 
22:00	57.6	57.6	57.6	84	52.8	2	5	292	0.00	29.660 
22:05	57.0	57.0	57.0	78	50.2	4	7	315	0.00	29.660 
22:10	55.6	55.6	55.6	74	47.4	6	11	292	0.00	29.660 
22:15	54.4	54.4	54.4	75	46.6	5	9	292	0.00	29.703 
22:20	52.9	52.9	52.9	75	45.2	6	15	292	0.01	29.703 
22:25	51.9	51.9	51.9	76	44.6	6	12	292	0.00	29.703 
22:30	50.5	50.5	50.5	77	43.6	5	11	292	0.00	29.715 
22:35	49.5	47.6	49.5	79	43.3	5	9	270	0.00	29.715 
22:40	48.8	48.8	48.8	81	43.2	3	7	315	0.00	29.715 
22:45	48.0	46.6	48.0	83	43.1	4	7	315	0.01	29.725 
22:50	47.6	47.6	47.6	84	43.0	3	7	315	0.00	29.725 
22:55	47.4	47.4	47.4	85	43.1	3	6	292	0.01	29.725 
23:00	47.3	45.8	47.3	86	43.3	4	9	315	0.00	29.693 
23:05	47.1	47.1	47.1	86	43.1	3	7	338	0.00	29.693 
23:10	47.0	47.0	47.0	86	43.0	2	6	315	0.00	29.693 
23:15	47.0	47.0	47.0	86	43.0	2	6	292	0.00	29.687 
23:20	47.0	47.0	47.0	86	43.0	3	7	292	0.00	29.687 
23:25	47.0	47.0	47.0	86	43.0	2	5	338	0.00	29.687 
23:30	46.8	46.8	46.8	86	42.8	3	9	270	0.00	29.712 
23:35	46.8	46.8	46.8	86	42.8	2	4	270	0.00	29.712 
23:40	46.8	46.8	46.8	87	43.1	2	9	315	0.00	29.712 
23:45	46.7	46.7	46.7	87	43.0	2	5	292	0.01	29.718 
23:50	46.7	46.7	46.7	87	43.0	1	3	292	0.00	29.718 
23:55	46.5	46.5	46.5	88	43.1	1	3	292	0.00	29.718 

CoCoRaHS
IN-AL-39
A2 Web Hosting
Creative Commons License
GoDaddy
search engine by freefind advanced

loaded 2018-11-17 14:06:33 • last modified 2010-11-18 10:43:29
Privacy PolicyDisclaimer
• wx.awcolley.com is powered by PmWiki v.2002016 •
• all content (unless otherwise noted) © 2018 A W Colley